Weather History for KMFI - November, 2013

Change the Weather History Date:

Wednesday, November 20, 2013

  Actual Average Record
Temperature  
Mean Temperature 35 °F -  
Max Temperature 37 °F 39 °F 65 °F (1975)
Min Temperature 33 °F 23 °F -6 °F (1921)
Degree Days  
Heating Degree Days 30    
Moisture  
Dew Point 29 °F    
Average Humidity 82    
Maximum Humidity 96    
Minimum Humidity 62    
Precipitation  
Precipitation 0.06 in - - ()
Sea Level Pressure  
Sea Level Pressure 30.08 in    
Wind  
Wind Speed 11 mph (SSE)    
Max Wind Speed 16 mph    
Max Gust Speed 22 mph    
Visibility 4 miles    
Events Fog , Rain , Snow    
Averages and records for this station are not official NWS values.
T = Trace of Precipitation, MM = Missing Value Source: NWS Daily Summary

Daily Weather History Graph

Daily Weather History Graph

Search for Another Location

Airport or City:

Trip Planner

Search our weather history database for the weather conditions in past years. The results will help you decide how hot, cold, wet, or windy it might be!

Date:

Astronomy

Nov. 20, 2013 Rise Set
Actual Time 7:04 AM CST 4:28 PM CST
Civil Twilight 6:32 AM CST 5:00 PM CST
Nautical Twilight 5:56 AM CST 5:35 PM CST
Astronomical Twilight 5:21 AM CST 6:10 PM CST
Moon 7:11 PM CST (11/20) 9:29 AM CST (11/20)
Length of Visible Light 10h 27m
Length of Day
9h 23m
Waning Gibbous, 91% of the Moon is Illuminated
Nov 20
Waning Gibbous
Nov 25
Last Quarter
Dec 2
New
Dec 9
First Quarter
Dec 17
Full

Hourly Weather History & Observations

Time (CST) Temp. Windchill Dew Point Humidity Pressure Visibility Wind Dir Wind Speed Gust Speed Precip Events Conditions
12:54 AM 35.1 °F 26.4 °F 26.1 °F 70% 30.15 in 10.0 mi South 12.7 mph - N/A   Overcast
1:54 AM 35.1 °F 27.4 °F 26.1 °F 70% 30.15 in 10.0 mi SSE 10.4 mph - N/A   Overcast
2:54 AM 34.0 °F 25.5 °F 26.1 °F 73% 30.15 in 10.0 mi SSE 11.5 mph - N/A   Overcast
3:54 AM 35.1 °F 28.6 °F 27.0 °F 72% 30.15 in 10.0 mi SSE 8.1 mph - N/A   Overcast
4:54 AM 35.1 °F 25.9 °F 27.0 °F 72% 30.13 in 10.0 mi SSE 13.8 mph - N/A   Mostly Cloudy
5:54 AM 35.1 °F 25.5 °F 26.1 °F 70% 30.12 in 10.0 mi SSE 15.0 mph 20.7 mph N/A   Overcast
6:54 AM 35.1 °F 26.4 °F 26.1 °F 70% 30.12 in 10.0 mi SSE 12.7 mph - N/A   Overcast
7:54 AM 35.1 °F 26.4 °F 26.1 °F 70% 30.13 in 10.0 mi SSE 12.7 mph - N/A   Overcast
8:54 AM 35.1 °F 26.9 °F 26.1 °F 70% 30.14 in 10.0 mi SSE 11.5 mph - N/A   Overcast
9:54 AM 36.0 °F 28.0 °F 26.1 °F 67% 30.14 in 10.0 mi SSE 11.5 mph - 0.00 in   Overcast
10:54 AM 36.0 °F 27.5 °F 26.1 °F 67% 30.14 in 10.0 mi SSE 12.7 mph - N/A   Overcast
11:54 AM 37.0 °F 30.4 °F 25.0 °F 62% 30.13 in 10.0 mi South 9.2 mph - N/A   Overcast
12:54 PM 37.0 °F 29.3 °F 25.0 °F 62% 30.12 in 10.0 mi South 11.5 mph - N/A   Overcast
1:47 PM 37.4 °F 28.2 °F 26.6 °F 65% 30.07 in 2.5 mi South 16.1 mph 20.7 mph 0.00 in Snow Light Snow
1:54 PM 35.1 °F 27.9 °F 28.0 °F 76% 30.11 in 1.2 mi South 9.2 mph - 0.00 in Snow Light Snow
2:03 PM 35.6 °F 29.2 °F 28.4 °F 75% 30.06 in 3.0 mi SSE 8.1 mph - 0.00 in Snow Light Snow
2:06 PM 35.6 °F 28.0 °F 28.4 °F 75% 30.06 in 1.8 mi SSE 10.4 mph - 0.00 in Snow Light Snow
2:11 PM 33.8 °F 25.3 °F 28.4 °F 81% 30.06 in 0.8 mi SSE 11.5 mph - 0.00 in Snow Light Snow
2:24 PM 33.8 °F 27.7 °F 28.4 °F 81% 30.05 in 1.2 mi SE 6.9 mph - 0.00 in Snow Light Snow
2:43 PM 33.8 °F 27.7 °F 28.4 °F 81% 30.05 in 0.8 mi SE 6.9 mph - 0.00 in Snow Light Snow
2:54 PM 33.1 °F 26.1 °F 30.0 °F 89% 30.10 in 0.8 mi SE 8.1 mph - 0.00 in Snow Light Snow
3:34 PM 33.8 °F 25.8 °F 30.2 °F 87% 30.06 in 0.5 mi SSE 10.4 mph - 0.01 in Fog , Snow Snow
3:42 PM 33.8 °F 27.0 °F 30.2 °F 87% 30.06 in 0.2 mi SE 8.1 mph - 0.01 in Fog , Snow Heavy Snow
3:54 PM 33.1 °F 25.5 °F 30.9 °F 92% 30.10 in 0.2 mi SE 9.2 mph - 0.02 in Fog , Snow Snow
4:16 PM 33.8 °F 26.4 °F 30.2 °F 87% 30.04 in 0.2 mi SE 9.2 mph - 0.02 in Fog , Snow Heavy Snow
4:32 PM 33.8 °F 24.3 °F 30.2 °F 87% 30.04 in 1.2 mi SE 13.8 mph - 0.02 in Snow Light Snow
4:54 PM 33.1 °F 23.4 °F 30.9 °F 92% 30.09 in 1.2 mi ESE 13.8 mph - 0.02 in Snow Light Snow
5:07 PM 33.8 °F 25.3 °F 30.2 °F 87% 30.04 in 2.0 mi ESE 11.5 mph - 0.00 in Snow Light Snow
5:21 PM 33.8 °F 24.8 °F 30.2 °F 87% 30.04 in 3.0 mi ESE 12.7 mph 21.9 mph 0.00 in Snow Light Snow
5:40 PM 33.8 °F 24.8 °F 30.2 °F 87% 30.04 in 2.5 mi SE 12.7 mph - 0.00 in Snow Light Snow
5:54 PM 33.1 °F 23.4 °F 30.0 °F 89% 30.09 in 2.5 mi SE 13.8 mph 20.7 mph 0.00 in Snow Light Snow
6:05 PM 33.8 °F 24.8 °F 30.2 °F 87% 30.04 in 1.8 mi SE 12.7 mph - 0.00 in Snow Light Snow
6:54 PM 33.1 °F 24.9 °F 30.9 °F 92% 30.10 in 1.5 mi SE 10.4 mph - 0.01 in Snow Light Snow
7:16 PM 33.8 °F 25.8 °F 30.2 °F 87% 30.05 in 2.0 mi SE 10.4 mph - 0.00 in Snow Light Snow
7:34 PM 33.8 °F 25.3 °F 30.2 °F 87% 30.04 in 1.8 mi SE 11.5 mph - 0.00 in Snow Light Snow
7:42 PM 33.8 °F 25.3 °F 30.2 °F 87% 30.05 in 2.0 mi SE 11.5 mph - 0.00 in Snow Light Snow
7:49 PM 33.8 °F 25.3 °F 30.2 °F 87% 30.05 in 1.2 mi SSE 11.5 mph - 0.00 in Snow Light Snow
7:54 PM 33.1 °F 24.9 °F 30.9 °F 92% 30.09 in 1.2 mi SE 10.4 mph - 0.01 in Snow Light Snow
8:09 PM 33.8 °F 24.8 °F 30.2 °F 87% 30.05 in 1.8 mi SSE 12.7 mph - 0.00 in Snow Light Snow
8:25 PM 33.8 °F 25.8 °F 30.2 °F 87% 30.05 in 2.5 mi SSE 10.4 mph - 0.00 in Snow Light Snow
8:38 PM 33.8 °F 27.0 °F 30.2 °F 87% 30.05 in 3.0 mi SSE 8.1 mph - 0.00 in Rain Light Rain
8:54 PM 33.1 °F 24.9 °F 30.9 °F 92% 30.10 in 3.0 mi SSE 10.4 mph - 0.00 in   Overcast
9:06 PM 33.8 °F 27.0 °F 30.2 °F 87% 30.05 in 2.5 mi SSE 8.1 mph - 0.00 in   Overcast
9:54 PM 33.1 °F 26.1 °F 32.0 °F 96% 30.09 in 2.5 mi SSE 8.1 mph - 0.00 in   Overcast
10:38 PM 33.8 °F 27.7 °F 32.0 °F 93% 30.06 in 1.8 mi SSE 6.9 mph - 0.00 in   Overcast
10:45 PM 33.8 °F 27.7 °F 32.0 °F 93% 30.06 in 1.8 mi SSE 6.9 mph - 0.00 in   Overcast
10:54 PM 33.1 °F 26.9 °F 32.0 °F 96% 30.10 in 2.0 mi SSE 6.9 mph - 0.00 in   Overcast
11:41 PM 33.8 °F 27.7 °F 32.0 °F 93% 30.06 in 1.5 mi South 6.9 mph - 0.00 in   Overcast
11:54 PM 33.1 °F 27.7 °F 32.0 °F 96% 30.10 in 1.2 mi South 5.8 mph - 0.00 in   Overcast